• In Netherlands
  • List of Countries
  • For 7 days
  • Water Temperature
  • Satellite Maps
  • Weather Map
  • Weather Widgets
  • user-avatar
    Login

    Hourly Weather Shusha

    Today, 27 July, Thursday

    Time Temperature Precipitation Wind Pressure Humidity
    00:00 +20°C° 0 mm 2 mps 659 mmHg 61%
    01:00 +20°C° 0 mm 2 mps 659 mmHg 61%
    02:00 +20°C° 0 mm 2 mps 659 mmHg 61%
    03:00 +20°C° 0 mm 1 mps 659 mmHg 61%
    04:00 +21°C° 0 mm 1 mps 659 mmHg 60%
    05:00 +21°C° 0 mm 1 mps 659 mmHg 59%
    06:00 +22°C° 0 mm 1 mps 660 mmHg 58%
    07:00 +23°C° 0 mm 2 mps 660 mmHg 52%
    08:00 +25°C° 0 mm 2 mps 660 mmHg 46%
    09:00 +27°C° 0 mm 2 mps 661 mmHg 40%
    10:00 +28°C° 0 mm 2 mps 661 mmHg 37%
    11:00 +30°C° 0 mm 3 mps 661 mmHg 34%
    12:00 +31°C° 0 mm 3 mps 661 mmHg 31%
    13:00 +31°C° 0 mm 3 mps 661 mmHg 30%
    14:00 +33°C° 0 mm 3 mps 661 mmHg 29%
    15:00 +33°C° 0 mm 4 mps 661 mmHg 28%
    16:00 +33°C° 0 mm 3 mps 660 mmHg 30%
    17:00 +31°C° 0 mm 3 mps 660 mmHg 32%
    18:00 +30°C° 0 mm 3 mps 660 mmHg 34%
    19:00 +28°C° 0 mm 3 mps 660 mmHg 38%
    20:00 +26°C° 0 mm 2 mps 660 mmHg 42%
    21:00 +24°C° 0 mm 2 mps 660 mmHg 46%
    22:00 +23°C° 0 mm 2 mps 660 mmHg 47%
    23:00 +23°C° 0 mm 2 mps 660 mmHg 48%

    Tomorrow, 28 July, Friday

    Time Temperature Precipitation Wind Pressure Humidity
    00:00 +21°C° 0 mm 2 mps 660 mmHg 48%
    01:00 +21°C° 0 mm 2 mps 660 mmHg 48%
    02:00 +21°C° 0 mm 2 mps 660 mmHg 48%
    03:00 +20°C° 0 mm 2 mps 660 mmHg 48%
    04:00 +21°C° 0 mm 2 mps 660 mmHg 47%
    05:00 +21°C° 0 mm 2 mps 660 mmHg 46%
    06:00 +23°C° 0 mm 2 mps 660 mmHg 45%
    07:00 +25°C° 0 mm 2 mps 660 mmHg 40%
    08:00 +27°C° 0 mm 2 mps 661 mmHg 35%
    09:00 +29°C° 0 mm 2 mps 661 mmHg 30%
    10:00 +31°C° 0 mm 2 mps 661 mmHg 28%
    11:00 +33°C° 0 mm 3 mps 661 mmHg 26%
    12:00 +34°C° 0 mm 3 mps 661 mmHg 24%
    13:00 +35°C° 0 mm 3 mps 661 mmHg 23%
    14:00 +35°C° 0 mm 3 mps 660 mmHg 22%
    15:00 +36°C° 0 mm 3 mps 660 mmHg 22%
    16:00 +35°C° 0 mm 3 mps 660 mmHg 24%
    17:00 +34°C° 0 mm 3 mps 659 mmHg 26%
    18:00 +32°C° 0 mm 2 mps 659 mmHg 28%
    19:00 +30°C° 0 mm 2 mps 659 mmHg 32%
    20:00 +28°C° 0 mm 2 mps 659 mmHg 36%
    21:00 +25°C° 0 mm 2 mps 659 mmHg 40%
    22:00 +25°C° 0 mm 2 mps 659 mmHg 41%
    23:00 +25°C° 0 mm 2 mps 659 mmHg 41%

    Day after tomorrow, 29 July, Saturday

    Time Temperature Precipitation Wind Pressure Humidity
    00:00 +24°C° 0 mm 2 mps 659 mmHg 42%
    01:00 +24°C° 0 mm 2 mps 659 mmHg 42%
    02:00 +23°C° 0 mm 2 mps 658 mmHg 42%
    03:00 +23°C° 0 mm 2 mps 658 mmHg 42%
    04:00 +23°C° 0 mm 2 mps 659 mmHg 42%
    05:00 +24°C° 0 mm 2 mps 659 mmHg 42%
    06:00 +24°C° 0 mm 2 mps 659 mmHg 41%
    07:00 +26°C° 0 mm 2 mps 660 mmHg 37%
    08:00 +29°C° 0 mm 2 mps 660 mmHg 33%
    09:00 +31°C° 0 mm 2 mps 661 mmHg 28%
    10:00 +32°C° 0 mm 2 mps 661 mmHg 26%
    11:00 +35°C° 0 mm 3 mps 661 mmHg 24%
    12:00 +36°C° 0 mm 3 mps 661 mmHg 22%
    13:00 +36°C° 0 mm 3 mps 660 mmHg 21%
    14:00 +37°C° 0 mm 3 mps 660 mmHg 21%
    15:00 +37°C° 0 mm 3 mps 660 mmHg 20%
    16:00 +36°C° 0 mm 3 mps 660 mmHg 22%
    17:00 +35°C° 0 mm 2 mps 660 mmHg 25%
    18:00 +35°C° 0 mm 2 mps 660 mmHg 27%
    19:00 +31°C° 0 mm 2 mps 660 mmHg 32%
    20:00 +29°C° 0 mm 2 mps 660 mmHg 36%
    21:00 +27°C° 0 mm 2 mps 660 mmHg 41%
    22:00 +26°C° 0 mm 2 mps 660 mmHg 43%
    23:00 +26°C° 0 mm 2 mps 660 mmHg 46%

    30 July, Sunday

    Time Temperature Precipitation Wind Pressure Humidity
    00:00 +25°C° 0 mm 2 mps 660 mmHg 48%
    01:00 +24°C° 0 mm 2 mps 660 mmHg 49%
    02:00 +24°C° 0 mm 2 mps 660 mmHg 50%
    03:00 +23°C° 0 mm 2 mps 660 mmHg 51%
    04:00 +23°C° 0 mm 2 mps 661 mmHg 50%
    05:00 +24°C° 0 mm 2 mps 661 mmHg 50%
    06:00 +24°C° 0 mm 1 mps 661 mmHg 49%
    07:00 +25°C° 0 mm 2 mps 662 mmHg 45%
    08:00 +27°C° 0 mm 2 mps 662 mmHg 41%
    09:00 +29°C° 0 mm 3 mps 663 mmHg 37%
    10:00 +30°C° 0 mm 3 mps 663 mmHg 35%
    11:00 +31°C° 0 mm 3 mps 663 mmHg 33%
    12:00 +33°C° 0 mm 3 mps 663 mmHg 32%
    13:00 +34°C° 0 mm 4 mps 662 mmHg 32%
    14:00 +34°C° 0 mm 4 mps 662 mmHg 31%
    15:00 +34°C° 0 mm 4 mps 662 mmHg 31%
    16:00 +33°C° 0 mm 4 mps 662 mmHg 34%
    17:00 +32°C° 0 mm 5 mps 662 mmHg 37%
    18:00 +30°C° 0 mm 5 mps 662 mmHg 40%
    19:00 +28°C° 0.1 mm 4 mps 662 mmHg 46%
    20:00 +26°C° 0.1 mm 3 mps 662 mmHg 52%
    21:00 +24°C° 0.1 mm 3 mps 662 mmHg 59%
    22:00 +24°C° 0 mm 2 mps 662 mmHg 60%
    23:00 +23°C° 0 mm 2 mps 662 mmHg 61%

    31 July, Monday

    Time Temperature Precipitation Wind Pressure Humidity
    00:00 +23°C° 0 mm 2 mps 662 mmHg 61%
    01:00 +23°C° 0 mm 2 mps 662 mmHg 62%
    02:00 +21°C° 0 mm 2 mps 662 mmHg 62%
    03:00 +22°C° 0 mm 1 mps 662 mmHg 63%
    04:00 +22°C° 0 mm 1 mps 663 mmHg 61%
    05:00 +23°C° 0 mm 2 mps 663 mmHg 60%
    06:00 +23°C° 0 mm 2 mps 664 mmHg 58%
    07:00 +25°C° 0 mm 3 mps 664 mmHg 53%
    08:00 +26°C° 0 mm 3 mps 665 mmHg 47%
    09:00 +28°C° 0 mm 4 mps 665 mmHg 42%
    10:00 +29°C° 0 mm 4 mps 665 mmHg 40%
    11:00 +30°C° 0 mm 5 mps 665 mmHg 37%
    12:00 +32°C° 0 mm 5 mps 665 mmHg 35%
    13:00 +32°C° 0 mm 5 mps 664 mmHg 35%
    14:00 +33°C° 0 mm 6 mps 664 mmHg 35%
    15:00 +33°C° 0 mm 6 mps 664 mmHg 34%
    16:00 +32°C° 0 mm 6 mps 664 mmHg 37%
    17:00 +29°C° 0 mm 5 mps 663 mmHg 41%
    18:00 +28°C° 0 mm 5 mps 663 mmHg 44%
    19:00 +26°C° 0 mm 4 mps 663 mmHg 50%
    20:00 +24°C° 0 mm 3 mps 663 mmHg 55%
    21:00 +23°C° 0 mm 2 mps 663 mmHg 61%
    22:00 +21°C° 0 mm 2 mps 663 mmHg 63%
    23:00 +21°C° 0 mm 2 mps 663 mmHg 64%

    1 August, Tuesday

    Time Temperature Precipitation Wind Pressure Humidity
    00:00 +20°C° 0 mm 2 mps 663 mmHg 65%
    01:00 +20°C° 0 mm 2 mps 663 mmHg 66%
    02:00 +21°C° 0 mm 1 mps 663 mmHg 66%
    03:00 +20°C° 0 mm 1 mps 663 mmHg 67%
    04:00 +21°C° 0 mm 1 mps 664 mmHg 65%
    05:00 +21°C° 0 mm 1 mps 664 mmHg 64%
    06:00 +21°C° 0 mm 1 mps 664 mmHg 62%
    07:00 +23°C° 0 mm 2 mps 665 mmHg 56%
    08:00 +25°C° 0 mm 3 mps 665 mmHg 50%
    09:00 +27°C° 0 mm 3 mps 665 mmHg 44%
    10:00 +28°C° 0 mm 4 mps 665 mmHg 41%
    11:00 +29°C° 0 mm 4 mps 665 mmHg 38%
    12:00 +30°C° 0 mm 4 mps 665 mmHg 35%
    13:00 +32°C° 0 mm 4 mps 665 mmHg 34%
    14:00 +32°C° 0 mm 5 mps 665 mmHg 34%
    15:00 +32°C° 0 mm 5 mps 664 mmHg 33%
    16:00 +30°C° 0 mm 5 mps 664 mmHg 35%
    17:00 +29°C° 0 mm 5 mps 664 mmHg 38%
    18:00 +28°C° 0 mm 5 mps 664 mmHg 40%
    19:00 +26°C° 0 mm 4 mps 664 mmHg 45%
    20:00 +24°C° 0 mm 3 mps 663 mmHg 51%
    21:00 +21°C° 0 mm 2 mps 663 mmHg 56%
    22:00 +21°C° 0 mm 2 mps 663 mmHg 57%
    23:00 +20°C° 0 mm 2 mps 663 mmHg 59%
    Show more